Location: Binningen
(47.7924°N, 8.7261°E)
Time: 08:15:08
(UTC+00:00)

COBE Rocket - Pass Details

Date: 17 May 2021
Orbit: 679 x 782 km, 97.1° (Epoch: 20 June)

Event Time Altitude Azimuth Distance (km) Brightness Sun altitude
Exits shadow 22:38:53 45° 133° (SE) 1,043 4.3 -22.0°
Maximum altitude 22:40:17 64° 73° (ENE) 859 4.2 -22.0°
Drops below altitude 10° 22:45:25 10° 353° (N) 2,349 7.7 -22.2°
Sets 22:47:47 0° 351° (N) 3,283 8.8 -22.2°
